Project,Study,Ord_Occ,Event_Num,Date_Time_UTC,Date_Time_PST,Lat_Dec,Lon_Dec,Sta_ID,Line,Sta,Depth,Pressure,Temp0,Temp1,Salt0,CorrSalt0,Salt1,CorrSalt1,O2ml/L,AveCorrO2ml/L,StaCorrO2ml/L,FluorV,AveEstChl,StaEstChl,ISUSV,AveEstNO3,StaEstNO3,SigThetaTS0,SigThetaTS1,BAT,XMiss,SPAR,PAR,BTL_Depth,BTL_Temp,BTL_Salt,BTL_O2ml/L,BTL_Chl,BTL_Pha,BTL_NO3
CalCOFI,0711NH,058,,15-Nov-2007 22:48:54,15-Nov-2007 14:48:54,34.14935,-121.15683,080.0 060.0,080.0,060.0,513.000,517.339,5.2950,5.2962,34.1828,34.1829,34.1842,34.1849,0.54234,0.54,0.53,0.0225,,,1.6332,41.39,40.434,26.9980,26.9989,0.5479,87.1988,1.6421e+03,9.9990e+03,,,,,,,
CalCOFI,0711NH,058,,15-Nov-2007 22:48:56,15-Nov-2007 14:48:56,34.14937,-121.15686,080.0 060.0,080.0,060.0,512.000,516.329,5.3065,5.3055,34.1810,34.1811,34.1826,34.1833,0.54218,0.54,0.53,0.0234,,,1.6867,43.00,42.095,26.9952,26.9966,0.5474,87.2097,1.6424e+03,9.9990e+03,,,,,,,
CalCOFI,0711NH,058,,15-Nov-2007 22:48:59,15-Nov-2007 14:48:59,34.14938,-121.15686,080.0 060.0,080.0,060.0,511.000,515.320,5.3035,5.3031,34.1815,34.1816,34.1830,34.1837,0.54345,0.54,0.53,0.0233,,,1.6766,42.70,41.782,26.9960,26.9972,0.5474,87.2088,1.6422e+03,9.9990e+03,511,5.32 ,34.180,  .52,,,42.2
CalCOFI,0711NH,058,,15-Nov-2007 22:49:02,15-Nov-2007 14:49:02,34.14937,-121.15686,080.0 060.0,080.0,060.0,510.000,514.310,5.3109,5.3094,34.1810,34.1811,34.1826,34.1833,0.54618,0.54,0.53,-9.990e-29,,,1.6840,42.92,42.011,26.9947,26.9961,0.5475,87.2083,1.6422e+03,9.9990e+03,,,,,,,
CalCOFI,0711NH,058,,15-Nov-2007 22:49:05,15-Nov-2007 14:49:05,34.14938,-121.15686,080.0 060.0,080.0,060.0,509.000,513.300,5.3183,5.3195,34.1805,34.1806,34.1817,34.1824,0.54841,0.54,0.53,-9.990e-29,,,1.6487,41.86,40.915,26.9934,26.9942,0.5478,87.2005,1.6422e+03,9.9990e+03,,,,,,,
CalCOFI,0711NH,058,,15-Nov-2007 22:49:06,15-Nov-2007 14:49:06,34.14938,-121.15686,080.0 060.0,080.0,060.0,508.000,512.290,5.3297,5.3296,34.1798,34.1799,34.1810,34.1817,0.55293,0.55,0.54,-9.990e-29,,,1.6684,42.45,41.527,26.9915,26.9925,0.5471,87.2173,1.6423e+03,9.9990e+03,,,,,,,
CalCOFI,0711NH,058,,15-Nov-2007 22:49:08,15-Nov-2007 14:49:08,34.14938,-121.15686,080.0 060.0,080.0,060.0,507.000,511.281,5.3504,5.3508,34.1792,34.1793,34.1801,34.1808,0.55362,0.55,0.54,-9.990e-29,,,1.6690,42.47,41.546,26.9886,26.9892,0.5473,87.2131,1.6422e+03,9.9990e+03,,,,,,,
CalCOFI,0711NH,058,,15-Nov-2007 22:49:09,15-Nov-2007 14:49:09,34.14938,-121.15686,080.0 060.0,080.0,060.0,506.000,510.271,5.3566,5.3582,34.1794,34.1795,34.1803,34.1810,0.55531,0.55,0.54,0.0232,,,1.6829,42.89,41.977,26.9880,26.9885,0.5472,87.2135,1.6428e+03,9.9990e+03,,,,,,,
CalCOFI,0711NH,058,,15-Nov-2007 22:49:10,15-Nov-2007 14:49:10,34.14938,-9.990e-29,080.0 060.0,080.0,060.0,505.000,509.261,5.3613,5.3617,34.1794,34.1795,34.1803,34.1810,0.55687,0.55,0.54,0.0230,,,1.6758,42.67,41.757,26.9874,26.9881,-9.990e-29,-9.990e-29,1.6424e+03,9.9990e+03,,,,,,,
CalCOFI,0711NH,058,,15-Nov-2007 22:49:13,15-Nov-2007 14:49:13,34.14938,-9.990e-29,080.0 060.0,080.0,060.0,504.000,508.252,5.3615,5.3623,34.1792,34.1793,34.1802,34.1809,0.55965,0.55,0.54,0.0230,,,1.6625,42.27,41.344,26.9872,26.9879,-9.990e-29,-9.990e-29,1.6419e+03,9.9990e+03,,,,,,,
CalCOFI,0711NH,058,,15-Nov-2007 22:49:14,15-Nov-2007 14:49:14,34.14938,-9.990e-29,080.0 060.0,080.0,060.0,503.000,507.242,5.3794,5.3787,34.1786,34.1787,34.1797,34.1804,0.56076,0.55,0.55,0.0229,,,1.6692,42.47,41.552,26.9846,26.9856,-9.990e-29,-9.990e-29,1.6387e+03,9.9990e+03,,,,,,,
CalCOFI,0711NH,058,,15-Nov-2007 22:49:15,15-Nov-2007 14:49:15,34.14938,-9.990e-29,080.0 060.0,080.0,060.0,502.000,506.232,5.3812,5.3827,34.1784,34.1785,34.1793,34.1800,0.56207,0.56,0.55,0.0228,,,1.6641,42.32,41.393,26.9843,26.9848,-9.990e-29,-9.990e-29,1.6385e+03,9.9990e+03,,,,,,,
CalCOFI,0711NH,058,,15-Nov-2007 22:49:17,15-Nov-2007 14:49:17,34.14938,-121.15688,080.0 060.0,080.0,060.0,501.000,505.223,5.3813,5.3828,34.1784,34.1785,34.1793,34.1800,0.56267,0.56,0.55,0.0230,,,1.6663,42.39,41.462,26.9842,26.9848,0.5470,87.2192,1.6384e+03,9.9990e+03,,,,,,,
CalCOFI,0711NH,058,,15-Nov-2007 22:49:20,15-Nov-2007 14:49:20,34.14938,-121.15689,080.0 060.0,080.0,060.0,500.000,504.213,5.3814,5.3826,34.1783,34.1784,34.1792,34.1799,0.56344,0.56,0.55,0.0235,,,1.6825,42.87,41.965,26.9841,26.9847,0.5468,87.2236,1.6404e+03,9.9990e+03,,,,,,,
CalCOFI,0711NH,058,,15-Nov-2007 22:49:21,15-Nov-2007 14:49:21,34.14938,-121.15690,080.0 060.0,080.0,060.0,499.000,503.204,5.3834,5.3842,34.1779,34.1780,34.1789,34.1796,0.56464,0.56,0.55,0.0233,,,1.6885,43.05,42.151,26.9836,26.9842,0.5470,87.2182,1.6430e+03,9.9990e+03,,,,,,,
CalCOFI,0711NH,058,,15-Nov-2007 22:49:22,15-Nov-2007 14:49:22,34.14938,-121.15690,080.0 060.0,080.0,060.0,498.000,502.194,5.3872,5.3884,34.1772,34.1773,34.1783,34.1790,0.56629,0.56,0.55,0.0231,,,1.6913,43.14,42.238,26.9825,26.9833,0.5471,87.2161,1.6459e+03,9.9990e+03,,,,,,,
CalCOFI,0711NH,058,,15-Nov-2007 22:49:24,15-Nov-2007 14:49:24,34.14940,-121.15690,080.0 060.0,080.0,060.0,497.000,501.184,5.3882,5.3895,34.1770,34.1771,34.1779,34.1786,0.56685,0.56,0.55,0.0230,,,1.6521,41.96,41.021,26.9823,26.9828,0.5469,87.2221,1.6431e+03,9.9990e+03,,,,,,,
CalCOFI,0711NH,058,,15-Nov-2007 22:49:25,15-Nov-2007 14:49:25,34.14940,-121.15690,080.0 060.0,080.0,060.0,496.000,500.175,5.3910,5.3931,34.1770,34.1771,34.1778,34.1785,0.56837,0.56,0.55,0.0232,,,1.6427,41.68,40.729,26.9819,26.9823,0.5468,87.2234,1.6423e+03,9.9990e+03,,,,,,,
CalCOFI,0711NH,058,,15-Nov-2007 22:49:26,15-Nov-2007 14:49:26,34.14940,-121.15690,080.0 060.0,080.0,060.0,495.000,499.165,5.4048,5.4051,34.1773,34.1774,34.1779,34.1786,0.56831,0.56,0.55,0.0234,,,1.6674,42.42,41.496,26.9805,26.9810,0.5470,87.2192,1.6425e+03,9.9990e+03,,,,,,,
CalCOFI,0711NH,058,,15-Nov-2007 22:49:28,15-Nov-2007 14:49:28,34.14940,-121.15690,080.0 060.0,080.0,060.0,494.000,498.155,5.4117,5.4117,34.1774,34.1775,34.1781,34.1788,0.56848,0.56,0.55,0.0231,,,1.6436,41.71,40.757,26.9797,26.9804,0.5469,87.2201,1.6424e+03,9.9990e+03,,,,,,,
CalCOFI,0711NH,058,,15-Nov-2007 22:49:30,15-Nov-2007 14:49:30,34.14940,-121.15690,080.0 060.0,080.0,060.0,493.000,497.146,5.4160,5.4162,34.1774,34.1775,34.1783,34.1790,0.56846,0.56,0.55,0.0232,,,1.6193,40.98,40.002,26.9793,26.9799,0.5470,87.2184,1.6445e+03,9.9990e+03,,,,,,,
CalCOFI,0711NH,058,,15-Nov-2007 22:49:31,15-Nov-2007 14:49:31,34.14940,-121.15692,080.0 060.0,080.0,060.0,492.000,496.136,5.4211,5.4225,34.1777,34.1778,34.1786,34.1793,0.56761,0.56,0.55,0.0231,,,1.6328,41.38,40.422,26.9789,26.9794,0.5489,87.1777,1.6465e+03,9.9990e+03,,,,,,,
CalCOFI,0711NH,058,,15-Nov-2007 22:49:32,15-Nov-2007 14:49:32,34.14940,-121.15692,080.0 060.0,080.0,060.0,491.000,495.126,5.4267,5.4280,34.1781,34.1782,34.1789,34.1796,0.56806,0.56,0.55,0.0236,,,1.6557,42.07,41.133,26.9785,26.9790,0.5470,87.2190,1.6462e+03,9.9990e+03,,,,,,,
CalCOFI,0711NH,058,,15-Nov-2007 22:49:34,15-Nov-2007 14:49:34,34.14940,-121.15692,080.0 060.0,080.0,060.0,490.000,494.117,5.4261,5.4275,34.1781,34.1782,34.1788,34.1795,0.56732,0.56,0.55,0.0230,,,1.6703,42.51,41.586,26.9786,26.9790,0.5467,87.2245,1.6465e+03,9.9990e+03,,,,,,,
CalCOFI,0711NH,058,,15-Nov-2007 22:49:37,15-Nov-2007 14:49:37,34.14940,-121.15692,080.0 060.0,080.0,060.0,489.000,493.107,5.4319,5.4318,34.1783,34.1784,34.1790,34.1797,0.56803,0.56,0.55,0.0229,,,1.6481,41.84,40.897,26.9780,26.9786,0.5468,87.2239,1.6504e+03,9.9990e+03,,,,,,,
CalCOFI,0711NH,058,,15-Nov-2007 22:49:38,15-Nov-2007 14:49:38,34.14940,-121.15692,080.0 060.0,080.0,060.0,488.000,492.098,5.4484,5.4445,34.1783,34.1784,34.1792,34.1799,0.56957,0.56,0.55,0.0230,,,1.6484,41.85,40.906,26.9760,26.9773,0.5468,87.2228,1.6503e+03,9.9990e+03,,,,,,,
CalCOFI,0711NH,058,,15-Nov-2007 22:49:39,15-Nov-2007 14:49:39,34.14940,-121.15693,080.0 060.0,080.0,060.0,487.000,491.088,5.4523,5.4536,34.1781,34.1782,34.1787,34.1794,0.56999,0.56,0.55,0.0230,,,1.6444,41.73,40.782,26.9755,26.9758,0.5469,87.2214,1.6499e+03,9.9990e+03,,,,,,,
CalCOFI,0711NH,058,,15-Nov-2007 22:49:40,15-Nov-2007 14:49:40,34.14940,-121.15694,080.0 060.0,080.0,060.0,486.000,490.078,5.4541,5.4557,34.1780,34.1781,34.1785,34.1792,0.57142,0.56,0.56,0.0231,,,1.5974,40.32,39.323,26.9751,26.9754,0.5465,87.2296,1.6500e+03,9.9990e+03,,,,,,,
CalCOFI,0711NH,058,,15-Nov-2007 22:49:41,15-Nov-2007 14:49:41,34.14940,-121.15694,080.0 060.0,080.0,060.0,485.000,489.069,5.4554,5.4569,34.1778,34.1779,34.1784,34.1791,0.57508,0.57,0.56,0.0229,,,1.6046,40.53,39.546,26.9748,26.9751,0.5469,87.2210,1.6500e+03,9.9990e+03,,,,,,,
CalCOFI,0711NH,058,,15-Nov-2007 22:49:42,15-Nov-2007 14:49:42,34.14940,-121.15694,080.0 060.0,080.0,060.0,484.000,488.059,5.4575,5.4589,34.1770,34.1771,34.1776,34.1783,0.57751,0.57,0.56,0.0230,,,1.6329,41.38,40.425,26.9739,26.9742,0.5467,87.2253,1.6502e+03,9.9990e+03,,,,,,,
CalCOFI,0711NH,058,,15-Nov-2007 22:49:44,15-Nov-2007 14:49:44,34.14940,-121.15694,080.0 060.0,080.0,060.0,483.000,487.050,5.4638,5.4640,34.1753,34.1754,34.1761,34.1768,0.58187,0.58,0.57,0.0231,,,1.6682,42.44,41.521,26.9718,26.9724,0.5467,87.2248,1.6502e+03,9.9990e+03,,,,,,,
CalCOFI,0711NH,058,,15-Nov-2007 22:49:46,15-Nov-2007 14:49:46,34.14940,-121.15696,080.0 060.0,080.0,060.0,482.000,486.040,5.4803,5.4754,34.1753,34.1754,34.1763,34.1770,0.58747,0.58,0.57,0.0231,,,1.6232,41.09,40.124,26.9698,26.9712,0.5468,87.2230,1.6505e+03,9.9990e+03,,,,,,,
CalCOFI,0711NH,058,,15-Nov-2007 22:49:48,15-Nov-2007 14:49:48,34.14940,-121.15696,080.0 060.0,080.0,060.0,481.000,485.031,5.4978,5.4927,34.1739,34.1740,34.1750,34.1757,0.59086,0.58,0.58,0.0228,,,1.6177,40.93,39.953,26.9666,26.9681,0.5465,87.2302,1.6531e+03,9.9990e+03,,,,,,,
CalCOFI,0711NH,058,,15-Nov-2007 22:49:49,15-Nov-2007 14:49:49,34.14940,-121.15696,080.0 060.0,080.0,060.0,480.000,484.021,5.5047,5.5031,34.1740,34.1741,34.1746,34.1753,0.59272,0.59,0.58,0.0235,,,1.6542,42.02,41.086,26.9658,26.9665,0.5467,87.2249,1.6545e+03,9.9990e+03,,,,,,,
CalCOFI,0711NH,058,,15-Nov-2007 22:49:51,15-Nov-2007 14:49:51,34.14940,-121.15696,080.0 060.0,080.0,060.0,479.000,483.012,5.5059,5.5071,34.1741,34.1742,34.1745,34.1752,0.59305,0.59,0.58,0.0232,,,1.6414,41.64,40.689,26.9658,26.9660,0.5466,87.2275,1.6543e+03,9.9990e+03,,,,,,,
CalCOFI,0711NH,058,,15-Nov-2007 22:49:52,15-Nov-2007 14:49:52,-9.990e-29,-121.15697,080.0 060.0,080.0,060.0,478.000,482.002,5.5080,5.5093,34.1743,34.1744,34.1748,34.1755,0.59208,0.59,0.58,0.0227,,,1.6341,41.42,40.462,26.9657,26.9660,0.5468,87.2237,1.6543e+03,9.9990e+03,,,,,,,
CalCOFI,0711NH,058,,15-Nov-2007 22:49:54,15-Nov-2007 14:49:54,-9.990e-29,-121.15698,080.0 060.0,080.0,060.0,477.000,480.992,5.5240,5.5210,34.1763,34.1764,34.1761,34.1768,0.58886,0.58,0.57,0.0234,,,1.6155,40.86,39.885,26.9653,26.9656,0.5467,87.2262,1.6543e+03,9.9990e+03,,,,,,,
CalCOFI,0711NH,058,,15-Nov-2007 22:49:56,15-Nov-2007 14:49:56,-9.990e-29,-121.15698,080.0 060.0,080.0,060.0,476.000,479.983,5.5427,5.5303,34.1781,34.1782,34.1775,34.1782,0.58452,0.58,0.57,0.0233,,,1.6522,41.96,41.024,26.9645,26.9655,0.5465,87.2291,1.6570e+03,9.9990e+03,,,,,,,
CalCOFI,0711NH,058,,15-Nov-2007 22:49:58,15-Nov-2007 14:49:58,-9.990e-29,-121.15700,080.0 060.0,080.0,060.0,475.000,478.973,5.5567,5.5525,34.1796,34.1797,34.1800,34.1807,0.58059,0.57,0.56,0.0227,,,1.6490,41.87,40.925,26.9640,26.9648,0.5466,87.2272,1.6581e+03,9.9990e+03,,,,,,,
CalCOFI,0711NH,058,,15-Nov-2007 22:49:59,15-Nov-2007 14:49:59,34.14938,-121.15700,080.0 060.0,080.0,060.0,474.000,477.964,5.5616,5.5615,34.1802,34.1803,34.1803,34.1810,0.58109,0.57,0.57,0.0235,,,1.6334,41.40,40.440,26.9639,26.9640,0.5462,87.2369,1.6582e+03,9.9990e+03,,,,,,,
CalCOFI,0711NH,058,,15-Nov-2007 22:49:59,15-Nov-2007 14:49:59,34.14940,-121.15700,080.0 060.0,080.0,060.0,473.000,476.954,5.5698,5.5705,34.1804,34.1805,34.1809,34.1816,0.58086,0.57,0.57,0.0231,,,1.6507,41.92,40.977,26.9631,26.9634,0.5462,87.2368,1.6584e+03,9.9990e+03,,,,,,,
CalCOFI,0711NH,058,,15-Nov-2007 22:50:00,15-Nov-2007 14:50:00,34.14940,-121.15700,080.0 060.0,080.0,060.0,472.000,475.945,5.5744,5.5757,34.1793,34.1794,34.1797,34.1804,0.58358,0.58,0.57,0.0237,,,1.6848,42.94,42.036,26.9616,26.9618,0.5462,87.2368,1.6582e+03,9.9990e+03,,,,,,,
CalCOFI,0711NH,058,,15-Nov-2007 22:50:01,15-Nov-2007 14:50:01,34.14940,-121.15700,080.0 060.0,080.0,060.0,471.000,474.935,5.5799,5.5814,34.1789,34.1790,34.1793,34.1800,0.58509,0.58,0.57,0.0236,,,1.6105,40.71,39.729,26.9606,26.9607,0.5464,87.2327,1.6584e+03,9.9990e+03,,,,,,,
CalCOFI,0711NH,058,,15-Nov-2007 22:50:03,15-Nov-2007 14:50:03,34.14939,-121.15702,080.0 060.0,080.0,060.0,470.000,473.926,5.5850,5.5865,34.1780,34.1781,34.1785,34.1792,0.58811,0.58,0.57,0.0232,,,1.6700,42.50,41.577,26.9593,26.9595,0.5469,87.2206,1.6596e+03,9.9990e+03,,,,,,,
CalCOFI,0711NH,058,,15-Nov-2007 22:50:05,15-Nov-2007 14:50:05,34.14938,-121.15702,080.0 060.0,080.0,060.0,469.000,472.916,5.5868,5.5848,34.1772,34.1773,34.1785,34.1792,0.59356,0.59,0.58,0.0234,,,1.6558,42.07,41.136,26.9584,26.9597,0.5464,87.2313,1.6619e+03,9.9990e+03,,,,,,,
CalCOFI,0711NH,058,,15-Nov-2007 22:50:09,15-Nov-2007 14:50:09,34.14938,-121.15702,080.0 060.0,080.0,060.0,468.000,471.907,5.5929,5.5885,34.1747,34.1748,34.1770,34.1777,0.60348,0.60,0.59,0.0228,,,1.6196,40.98,40.012,26.9557,26.9581,0.5470,87.2198,1.6660e+03,9.9990e+03,,,,,,,
CalCOFI,0711NH,058,,15-Nov-2007 22:50:10,15-Nov-2007 14:50:10,34.14938,-121.15704,080.0 060.0,080.0,060.0,467.000,470.897,5.6013,5.6010,34.1730,34.1731,34.1737,34.1744,0.61050,0.60,0.59,0.0237,,,1.5955,40.26,39.264,26.9534,26.9539,0.5464,87.2317,1.6663e+03,9.9990e+03,,,,,,,
CalCOFI,0711NH,058,,15-Nov-2007 22:50:10,15-Nov-2007 14:50:10,34.14938,-121.15704,080.0 060.0,080.0,060.0,466.000,469.888,5.6035,5.6051,34.1719,34.1720,34.1721,34.1728,0.61857,0.61,0.60,0.0234,,,1.6323,41.37,40.406,26.9522,26.9522,0.5467,87.2262,1.6662e+03,9.9990e+03,,,,,,,
CalCOFI,0711NH,058,,15-Nov-2007 22:50:12,15-Nov-2007 14:50:12,34.14938,-121.15704,080.0 060.0,080.0,060.0,465.000,468.878,5.6011,5.6030,34.1679,34.1680,34.1682,34.1689,0.62798,0.62,0.61,0.0234,,,1.6363,41.49,40.530,26.9493,26.9493,0.5464,87.2317,1.6667e+03,9.9990e+03,,,,,,,
CalCOFI,0711NH,058,,15-Nov-2007 22:50:13,15-Nov-2007 14:50:13,34.14938,-121.15706,080.0 060.0,080.0,060.0,464.000,467.869,5.5993,5.6004,34.1645,34.1646,34.1649,34.1656,0.63469,0.63,0.62,0.0229,,,1.6387,41.56,40.605,26.9468,26.9470,0.5464,87.2320,1.6703e+03,9.9990e+03,,,,,,,
CalCOFI,0711NH,058,,15-Nov-2007 22:50:14,15-Nov-2007 14:50:14,34.14938,-121.15706,080.0 060.0,080.0,060.0,463.000,466.859,5.6012,5.6025,34.1647,34.1648,34.1650,34.1657,0.63848,0.63,0.62,0.0231,,,1.6031,40.49,39.499,26.9467,26.9468,0.5463,87.2336,1.6703e+03,9.9990e+03,,,,,,,
CalCOFI,0711NH,058,,15-Nov-2007 22:50:16,15-Nov-2007 14:50:16,34.14938,-121.15708,080.0 060.0,080.0,060.0,462.000,465.850,5.6065,5.6086,34.1653,34.1654,34.1657,34.1664,0.63913,0.63,0.62,0.0236,,,1.6667,42.40,41.474,26.9465,26.9466,0.5475,87.2076,1.6702e+03,9.9990e+03,,,,,,,
CalCOFI,0711NH,058,,15-Nov-2007 22:50:17,15-Nov-2007 14:50:17,34.14938,-121.15708,080.0 060.0,080.0,060.0,461.000,464.840,5.6117,5.6128,34.1661,34.1662,34.1663,34.1670,0.63973,0.63,0.62,0.0232,,,1.6677,42.43,41.505,26.9466,26.9466,0.5466,87.2268,1.6703e+03,9.9990e+03,,,,,,,
CalCOFI,0711NH,058,,15-Nov-2007 22:50:19,15-Nov-2007 14:50:19,34.14938,-121.15708,080.0 060.0,080.0,060.0,460.000,463.831,5.6155,5.6161,34.1662,34.1663,34.1665,34.1672,0.64205,0.63,0.63,0.0230,,,1.6599,42.19,41.263,26.9461,26.9463,0.5466,87.2279,1.6703e+03,9.9990e+03,,,,,,,
CalCOFI,0711NH,058,,15-Nov-2007 22:50:20,15-Nov-2007 14:50:20,34.14938,-121.15709,080.0 060.0,080.0,060.0,459.000,462.822,5.6139,5.6157,34.1647,34.1648,34.1653,34.1660,0.64448,0.64,0.63,0.0232,,,1.6570,42.11,41.173,26.9452,26.9454,0.5464,87.2319,1.6703e+03,9.9990e+03,,,,,,,
CalCOFI,0711NH,058,,15-Nov-2007 22:50:22,15-Nov-2007 14:50:22,34.14938,-121.15710,080.0 060.0,080.0,060.0,458.000,461.812,5.6168,5.6162,34.1646,34.1647,34.1646,34.1653,0.64481,0.64,0.63,0.0233,,,1.6518,41.95,41.012,26.9447,26.9448,0.5465,87.2295,1.6703e+03,9.9990e+03,,,,,,,
CalCOFI,0711NH,058,,15-Nov-2007 22:50:23,15-Nov-2007 14:50:23,34.14938,-121.15710,080.0 060.0,080.0,060.0,457.000,460.803,5.6238,5.6241,34.1655,34.1656,34.1657,34.1664,0.64519,0.64,0.63,0.0227,,,1.6844,42.93,42.024,26.9445,26.9447,0.5467,87.2259,1.6703e+03,9.9990e+03,,,,,,,
CalCOFI,0711NH,058,,15-Nov-2007 22:50:25,15-Nov-2007 14:50:25,34.14938,-121.15711,080.0 060.0,080.0,060.0,456.000,459.793,5.6265,5.6267,34.1657,34.1658,34.1659,34.1666,0.64533,0.64,0.63,0.0235,,,1.6609,42.22,41.294,26.9444,26.9445,0.5465,87.2306,1.6702e+03,9.9990e+03,,,,,,,
CalCOFI,0711NH,058,,15-Nov-2007 22:50:27,15-Nov-2007 14:50:27,34.14938,-121.15712,080.0 060.0,080.0,060.0,455.000,458.784,5.6369,5.6363,34.1663,34.1664,34.1668,34.1675,0.65100,0.64,0.63,0.0235,,,1.6665,42.39,41.468,26.9436,26.9441,0.5464,87.2332,1.6697e+03,9.9990e+03,,,,,,,
CalCOFI,0711NH,058,,15-Nov-2007 22:50:28,15-Nov-2007 14:50:28,34.14938,-121.15712,080.0 060.0,080.0,060.0,454.000,457.774,5.6454,5.6468,34.1634,34.1635,34.1639,34.1646,0.65552,0.65,0.64,0.0231,,,1.6221,41.06,40.089,26.9402,26.9405,0.5468,87.2226,1.6665e+03,9.9990e+03,,,,,,,
CalCOFI,0711NH,058,,15-Nov-2007 22:50:30,15-Nov-2007 14:50:30,34.14938,-121.15713,080.0 060.0,080.0,060.0,453.000,456.765,5.6458,5.6474,34.1617,34.1618,34.1618,34.1625,0.66027,0.65,0.64,0.0230,,,1.6829,42.89,41.977,26.9388,26.9387,0.5467,87.2266,1.6641e+03,9.9990e+03,,,,,,,
CalCOFI,0711NH,058,,15-Nov-2007 22:50:31,15-Nov-2007 14:50:31,34.14938,-121.15714,080.0 060.0,080.0,060.0,452.000,455.756,5.6455,5.6471,34.1613,34.1614,34.1615,34.1622,0.66455,0.66,0.65,0.0228,,,1.6460,41.78,40.832,26.9385,26.9385,0.5468,87.2230,1.6616e+03,9.9990e+03,,,,,,,
CalCOFI,0711NH,058,,15-Nov-2007 22:50:32,15-Nov-2007 14:50:32,34.14938,-121.15715,080.0 060.0,080.0,060.0,451.000,454.746,5.6458,5.6475,34.1612,34.1613,34.1611,34.1618,0.66353,0.66,0.65,0.0229,,,1.6398,41.59,40.639,26.9384,26.9382,0.5467,87.2259,1.6583e+03,9.9990e+03,,,,,,,
CalCOFI,0711NH,058,,15-Nov-2007 22:50:33,15-Nov-2007 14:50:33,34.14938,-121.15716,080.0 060.0,080.0,060.0,450.000,453.737,5.6484,5.6504,34.1613,34.1614,34.1615,34.1622,0.66311,0.66,0.65,0.0232,,,1.5964,40.29,39.291,26.9382,26.9381,0.5663,86.8016,1.6584e+03,9.9990e+03,,,,,,,
CalCOFI,0711NH,058,,15-Nov-2007 22:50:34,15-Nov-2007 14:50:34,34.14938,-121.15716,080.0 060.0,080.0,060.0,449.000,452.727,5.6682,5.6689,34.1633,34.1634,34.1637,34.1644,0.66115,0.65,0.64,0.0230,,,1.5667,39.40,38.369,26.9374,26.9376,0.5476,87.2054,1.6586e+03,9.9990e+03,,,,,,,
CalCOFI,0711NH,058,,15-Nov-2007 22:50:36,15-Nov-2007 14:50:36,34.14938,-121.15716,080.0 060.0,080.0,060.0,448.000,451.718,5.6832,5.6793,34.1648,34.1649,34.1644,34.1651,0.65961,0.65,0.64,0.0233,,,1.6053,40.56,39.568,26.9367,26.9369,0.5464,87.2317,1.6550e+03,9.9990e+03,,,,,,,
CalCOFI,0711NH,058,,15-Nov-2007 22:50:39,15-Nov-2007 14:50:39,34.14938,-121.15717,080.0 060.0,080.0,060.0,447.000,450.709,5.7079,5.6939,34.1667,34.1668,34.1659,34.1666,0.65462,0.65,0.64,0.0231,,,1.6183,40.95,39.971,26.9352,26.9363,0.5466,87.2276,1.6542e+03,9.9990e+03,,,,,,,
CalCOFI,0711NH,058,,15-Nov-2007 22:50:40,15-Nov-2007 14:50:40,34.14938,-121.15716,080.0 060.0,080.0,060.0,446.000,449.699,5.7371,5.7287,34.1686,34.1687,34.1683,34.1690,0.65470,0.65,0.64,0.0231,,,1.6240,41.12,40.148,26.9331,26.9340,0.5463,87.2349,1.6505e+03,9.9990e+03,,,,,,,
CalCOFI,0711NH,058,,15-Nov-2007 22:50:42,15-Nov-2007 14:50:42,34.14938,-121.15718,080.0 060.0,080.0,060.0,445.000,448.690,5.7469,5.7440,34.1679,34.1680,34.1681,34.1688,0.65669,0.65,0.64,0.0232,,,1.5839,39.91,38.903,26.9313,26.9319,0.5464,87.2327,1.6500e+03,9.9990e+03,,,,,,,
CalCOFI,0711NH,058,,15-Nov-2007 22:50:44,15-Nov-2007 14:50:44,34.14937,-121.15720,080.0 060.0,080.0,060.0,444.000,447.680,5.7504,5.7477,34.1674,34.1675,34.1675,34.1682,0.65912,0.65,0.64,0.0230,,,1.6440,41.72,40.769,26.9305,26.9310,0.5468,87.2241,1.6507e+03,9.9990e+03,,,,,,,
CalCOFI,0711NH,058,,15-Nov-2007 22:50:46,15-Nov-2007 14:50:46,34.14938,-121.15720,080.0 060.0,080.0,060.0,443.000,446.671,5.7558,5.7556,34.1665,34.1666,34.1666,34.1673,0.66155,0.65,0.65,0.0231,,,1.6358,41.47,40.515,26.9291,26.9293,0.5465,87.2306,1.6504e+03,9.9990e+03,,,,,,,
CalCOFI,0711NH,058,,15-Nov-2007 22:50:50,15-Nov-2007 14:50:50,34.14937,-121.15722,080.0 060.0,080.0,060.0,442.000,445.662,5.7578,5.7526,34.1659,34.1660,34.1666,34.1673,0.66544,0.66,0.65,0.0232,,,1.6254,41.16,40.192,26.9284,26.9296,0.5473,87.2126,1.6540e+03,9.9990e+03,,,,,,,
CalCOFI,0711NH,058,,15-Nov-2007 22:50:53,15-Nov-2007 14:50:53,34.14938,-121.15722,080.0 060.0,080.0,060.0,441.000,444.652,5.7656,5.7648,34.1646,34.1647,34.1651,34.1658,0.66974,0.66,0.65,0.0233,,,1.6212,41.03,40.061,26.9264,26.9269,0.5470,87.2199,1.6541e+03,9.9990e+03,,,,,,,
CalCOFI,0711NH,058,,15-Nov-2007 22:50:57,15-Nov-2007 14:50:57,34.14936,-121.15722,080.0 060.0,080.0,060.0,440.000,443.643,5.7684,5.7703,34.1642,34.1643,34.1640,34.1647,0.67201,0.66,0.66,0.0230,,,1.6274,41.22,40.254,26.9258,26.9253,0.5464,87.2321,1.6543e+03,9.9990e+03,,,,,,,
CalCOFI,0711NH,058,,15-Nov-2007 22:51:02,15-Nov-2007 14:51:02,34.14936,-9.990e-29,080.0 060.0,080.0,060.0,439.000,442.634,5.7719,5.7719,34.1636,34.1637,34.1638,34.1645,0.67614,0.67,0.66,0.0231,,,1.6079,40.63,39.649,26.9248,26.9250,0.5470,87.2193,1.6543e+03,9.9990e+03,,,,,,,
CalCOFI,0711NH,058,,15-Nov-2007 22:51:05,15-Nov-2007 14:51:05,34.14936,-121.15726,080.0 060.0,080.0,060.0,438.000,441.624,5.7760,5.7764,34.1629,34.1630,34.1630,34.1637,0.67925,0.67,0.66,0.0230,,,1.6384,41.55,40.596,26.9238,26.9237,0.5464,87.2321,1.6551e+03,9.9990e+03,438,5.78 ,34.164,  .65,,,40.7
CalCOFI,0711NH,058,,15-Nov-2007 22:51:10,15-Nov-2007 14:51:10,-9.990e-29,-121.15727,080.0 060.0,080.0,060.0,437.000,440.615,5.7793,5.7797,34.1625,34.1626,34.1624,34.1631,0.68062,0.67,0.66,0.0233,,,1.6365,41.49,40.537,26.9230,26.9229,0.5465,87.2292,1.6571e+03,9.9990e+03,,,,,,,
CalCOFI,0711NH,058,,15-Nov-2007 22:52:17,15-Nov-2007 14:52:17,34.14932,-121.15747,080.0 060.0,080.0,060.0,436.000,439.606,5.7809,5.7817,34.1626,34.1627,34.1622,34.1629,0.68351,0.68,0.67,0.0233,,,1.6396,41.59,40.633,26.9229,26.9225,0.5463,87.2345,1.6419e+03,9.9990e+03,,,,,,,
CalCOFI,0711NH,058,,15-Nov-2007 22:52:30,15-Nov-2007 14:52:30,34.14932,-121.15752,080.0 060.0,080.0,060.0,435.000,438.596,5.7835,5.7840,34.1624,34.1625,34.1620,34.1627,0.68622,0.68,0.67,0.0233,,,1.6014,40.44,39.447,26.9224,26.9220,-9.990e-29,-9.990e-29,1.6386e+03,9.9990e+03,,,,,,,
CalCOFI,0711NH,058,,15-Nov-2007 22:52:31,15-Nov-2007 14:52:31,34.14932,-121.15752,080.0 060.0,080.0,060.0,434.000,437.587,5.7912,5.7923,34.1615,34.1616,34.1611,34.1618,0.68875,0.68,0.67,0.0231,,,1.6072,40.61,39.627,26.9207,26.9203,-9.990e-29,-9.990e-29,1.6386e+03,9.9990e+03,,,,,,,
CalCOFI,0711NH,058,,15-Nov-2007 22:52:32,15-Nov-2007 14:52:32,34.14932,-121.15752,080.0 060.0,080.0,060.0,433.000,436.578,5.7959,5.7957,34.1611,34.1612,34.1607,34.1614,0.69071,0.68,0.67,0.0228,,,1.6460,41.78,40.832,26.9198,26.9195,-9.990e-29,-9.990e-29,1.6388e+03,9.9990e+03,,,,,,,
CalCOFI,0711NH,058,,15-Nov-2007 22:52:35,15-Nov-2007 14:52:35,34.14932,-121.15754,080.0 060.0,080.0,060.0,432.000,435.568,5.8004,5.8006,34.1607,34.1608,34.1603,34.1610,0.69351,0.69,0.68,0.0231,,,1.6297,41.29,40.325,26.9190,26.9186,-9.990e-29,-9.990e-29,1.6395e+03,9.9990e+03,,,,,,,
CalCOFI,0711NH,058,,15-Nov-2007 22:52:37,15-Nov-2007 14:52:37,34.14932,-121.15754,080.0 060.0,080.0,060.0,431.000,434.559,5.8032,5.8039,34.1606,34.1607,34.1601,34.1608,0.69641,0.69,0.68,0.0235,,,1.6012,40.43,39.441,26.9185,26.9180,0.5462,87.2368,1.6421e+03,9.9990e+03,,,,,,,
CalCOFI,0711NH,058,,15-Nov-2007 22:52:38,15-Nov-2007 14:52:38,34.14932,-121.15755,080.0 060.0,080.0,060.0,430.000,433.550,5.8130,5.8150,34.1600,34.1601,34.1595,34.1602,0.69912,0.69,0.68,0.0233,,,1.5947,40.24,39.239,26.9168,26.9162,0.5463,87.2347,1.6421e+03,9.9990e+03,,,,,,,
CalCOFI,0711NH,058,,15-Nov-2007 22:52:39,15-Nov-2007 14:52:39,34.14932,-121.15756,080.0 060.0,080.0,060.0,429.000,432.540,5.8202,5.8222,34.1597,34.1598,34.1592,34.1599,0.70426,0.70,0.69,0.0230,,,1.6033,40.50,39.506,26.9157,26.9151,0.5463,87.2353,1.6413e+03,9.9990e+03,,,,,,,